sat.trackr.live / text

‹ back to catalog

SHIYAN-23 (SY-23)

NORAD 59728 · 2024-089A

PAYLOAD ACTIVE UNKNOWN

§ Identity

Operator
Country
PRC
Launch date
2024-05-11
Launch site
JSC
Launch vehicle
Mass (kg)
RCS (m²)

External: N2YO · Heavens-Above · Gunter

§ Orbital elements

Epoch: 2026-05-24T17:10:55.858656Z

Period
96.84 min
Inclination
97.7767°
Eccentricity
0.0001843
Mean motion
14.86999609 rev/d
Perigee alt
606.0 km
Apogee alt
608.6 km
Semi-major
6,985.5 km
B*
5.8705e-5
RAAN
146.9804°
Arg perigee
277.1784°
Mean anomaly
82.9222°
Rev number
11,035

§ Raw data

SHIYAN-23 (SY-23)1 59728U 24089A   26144.71592429  .00000472  00000+0  58705-4 0  99912 59728  97.7767 146.9804 0001843 277.1784  82.9222 14.86999609110356

JSON: /api/v1/satellites/59728 · /tle

For live sub-satellite position, see the globe view (requires WebGL).

§ Visibility from observer

Set your observer location to see the next 7 days of passes ≥ 10°. The values pass through the URL so the page stays shareable.

No JS? Fill the form by hand. The geolocation button needs JavaScript.